Theta_e
291 292 291 293 293 293 292 291 290 290 292 292 289 287 289 286 282 283 287 293 292 295 298 299 299 300 301 301 300 298 297 296 296 295 294 294 294 295 294 294 295 295 296 296 297 297 299 303 308 313 314 314 314 315 316 316 317 317 317 316 316 316 316 316 315 317 318 318 318 317 317 315 314 313 312 312 313 313 313 312 312 310 309 308 309 308 308
290 291 291 292 291 291 291 290 290 291 291 291 291 290 290 288 285 289 292 293 292 295 298 300 300 301 302 301 300 297 295 295 295 295 294 294 294 294 294 294 294 294 295 295 295 296 296 297 298 298 302 309 313 313 314 315 316 317 318 317 316 315 315 315 315 317 317 317 316 316 317 317 316 315 314 313 314 313 313 313 311 310 310 310 308 309 308
288 291 291 291 291 290 288 289 290 290 290 292 292 290 290 291 290 291 292 292 291 297 299 300 302 303 304 301 296 295 294 295 294 293 293 293 293 294 294 293 293 294 295 295 295 295 295 296 296 297 298 299 300 301 308 314 315 316 315 314 314 315 315 315 315 316 316 316 316 316 315 316 316 317 315 314 313 313 313 312 313 312 312 311 311 307 308
284 290 290 289 290 289 287 286 287 287 287 287 289 286 290 287 287 289 291 290 290 297 300 301 302 302 300 296 295 294 294 294 294 292 292 292 292 293 293 293 293 293 293 294 294 294 295 296 296 296 297 298 299 300 302 304 305 306 305 304 303 304 308 313 316 317 316 316 316 315 316 315 314 313 314 313 313 312 312 312 311 311 312 311 311 310 309
283 289 290 289 288 286 283 284 285 287 288 291 292 292 293 292 292 290 289 289 295 298 299 298 297 299 297 294 293 292 293 293 293 293 292 292 292 293 294 294 294 293 293 294 294 294 294 294 295 296 297 297 297 299 300 301 302 301 300 300 300 300 300 301 302 305 308 309 310 311 312 311 312 314 313 313 313 313 313 313 310 311 309 311 311 311 311
283 286 287 289 284 277 279 289 291 288 288 291 290 288 291 293 292 288 293 294 297 298 297 295 293 292 292 292 293 294 293 292 292 293 293 293 293 293 293 293 293 294 294 294 294 295 295 295 295 296 297 297 297 298 299 300 299 299 299 299 299 298 298 298 298 299 300 302 303 304 306 306 306 306 306 307 310 312 313 313 311 311 311 311 311 310 310
283 285 285 282 277 279 289 293 292 290 290 293 293 293 293 294 295 295 296 296 296 294 294 293 292 293 293 294 294 295 295 294 293 292 292 292 292 292 293 293 294 294 294 295 294 294 296 297 298 296 296 296 297 298 298 298 298 298 298 298 298 298 298 298 298 298 299 299 300 301 302 303 302 303 303 303 304 306 308 310 310 311 310 309 309 310 309
284 283 283 276 278 287 290 292 292 292 292 289 290 290 292 294 292 292 290 292 293 293 293 293 294 294 294 294 295 295 295 295 294 292 292 291 291 291 292 293 293 294 295 295 295 295 298 298 298 298 296 296 296 296 298 297 297 298 298 298 298 298 298 298 298 298 298 298 298 298 299 299 299 300 300 300 301 302 302 303 305 306 306 306 306 306 307
281 281 281 281 286 286 286 286 287 287 284 285 285 283 285 292 293 291 289 291 291 292 293 294 294 294 293 291 291 294 293 292 292 291 291 291 291 291 292 293 294 295 296 296 297 297 297 298 297 297 298 297 296 297 298 298 297 297 297 297 297 298 298 298 298 298 298 298 298 297 297 297 297 297 297 297 298 300 298 298 299 301 302 304 306 307 306
284 282 279 279 278 276 281 286 290 293 292 291 292 288 285 292 293 293 291 290 291 291 292 292 292 292 289 285 286 291 293 293 293 292 291 291 291 292 292 293 294 295 296 296 297 296 296 296 297 298 299 299 298 297 297 297 297 297 297 297 296 297 297 298 298 298 298 298 297 297 296 296 296 296 296 296 296 298 297 297 297 298 299 301 303 305 306
282 281 277 276 275 279 284 285 287 291 292 293 292 288 284 291 293 292 291 290 290 290 290 291 291 290 284 283 284 289 290 290 292 291 292 293 293 292 292 293 294 295 296 297 297 297 297 296 297 299 299 300 299 298 297 296 296 295 295 296 295 295 296 297 297 297 297 297 297 296 296 296 296 296 295 295 296 296 296 296 296 297 298 298 299 300 302
281 281 278 277 282 280 285 287 287 289 292 292 290 281 281 290 294 293 291 290 290 291 291 290 289 286 282 282 285 289 290 290 291 291 290 290 290 292 292 293 295 297 299 298 296 296 295 296 298 300 299 298 298 297 297 297 297 296 296 296 297 296 296 296 297 297 297 297 297 296 296 296 296 296 296 296 296 296 295 296 296 296 296 297 297 298 299
281 281 279 280 280 285 288 288 289 290 292 291 280 276 284 292 294 294 293 291 290 290 289 289 285 286 288 288 289 290 291 290 289 290 290 290 290 291 293 294 296 296 296 296 296 297 296 297 297 297 296 295 295 295 295 295 295 296 297 298 299 297 297 297 297 296 296 296 296 296 297 296 296 296 296 295 295 295 295 295 295 295 295 295 296 296 298
279 277 276 275 277 284 289 290 291 291 289 280 277 286 291 293 293 293 293 292 292 290 288 288 288 289 290 291 290 290 290 290 289 290 290 290 291 292 294 295 295 294 295 293 294 295 296 296 297 297 296 295 294 294 293 293 293 295 296 296 296 297 297 296 296 295 295 296 297 297 297 296 295 295 295 295 296 295 295 295 294 294 294 294 294 294 295
278 277 275 275 273 282 290 289 288 289 282 283 290 290 290 292 291 292 291 291 291 290 288 289 289 289 289 289 289 289 290 290 289 289 290 290 290 291 291 292 293 293 292 293 293 293 294 294 295 295 295 294 293 293 293 294 295 295 295 295 295 295 295 295 295 295 295 294 295 296 295 294 293 292 293 293 293 294 293 293 293 292 292 292 292 292 292
275 275 275 276 283 286 290 287 282 285 287 290 290 290 287 290 290 290 290 290 291 291 290 289 289 289 288 288 289 289 289 289 289 289 289 290 291 291 292 293 293 293 292 293 294 294 294 294 294 293 293 292 292 292 291 293 294 295 295 295 295 294 294 294 294 295 295 295 294 294 294 293 293 293 293 293 293 293 293 292 291 291 291 292 291 291 290
279 278 281 285 287 288 289 289 288 289 290 291 290 290 289 289 289 292 291 291 291 292 291 290 289 288 288 288 289 288 288 289 290 290 289 290 290 291 291 291 292 291 291 291 291 292 292 292 292 292 291 292 291 291 291 293 294 294 293 293 293 293 293 293 293 294 294 294 294 294 294 293 293 293 293 293 292 292 292 292 291 290 289 290 289 289 289
288 289 288 288 287 288 289 290 291 290 291 292 292 291 289 290 290 291 290 291 292 291 291 290 289 289 288 288 289 289 289 289 289 290 290 290 290 290 291 291 291 291 291 291 291 291 291 292 292 293 292 292 291 291 292 292 291 292 292 292 292 291 291 291 291 292 292 292 292 293 293 293 292 292 292 291 291 291 291 291 290 290 289 289 289 289 288
283 278 287 286 286 288 289 290 291 292 292 292 292 291 291 291 292 291 292 291 291 291 291 290 289 289 289 289 290 290 290 289 288 289 288 288 289 290 290 290 290 290 290 290 291 291 291 291 291 292 291 292 291 292 291 292 291 291 291 291 291 290 290 290 290 291 291 291 291 292 291 291 291 292 291 291 291 290 290 289 289 289 289 289 289 288 289
278 279 284 286 287 287 289 290 290 290 291 292 292 292 292 292 293 294 294 295 294 294 293 292 290 289 290 290 290 290 290 290 290 290 289 289 289 288 290 290 289 288 288 289 290 290 290 290 290 291 291 291 292 292 292 292 291 291 291 289 290 289 290 290 290 290 290 289 290 290 290 291 290 290 291 291 290 290 289 290 289 289 289 289 288 288 288
282 285 285 286 286 286 286 288 289 291 292 292 292 293 293 293 292 292 292 293 293 293 293 292 291 289 289 290 290 289 289 289 288 288 288 288 288 289 290 290 290 289 289 289 289 289 289 289 290 290 290 290 291 290 291 291 291 291 291 290 290 290 290 290 291 291 291 291 291 291 290 290 290 290 291 291 290 290 290 291 290 290 289 289 289 289 288
277 278 283 285 281 279 284 285 287 289 290 291 291 290 291 291 291 291 291 291 291 291 290 290 289 288 289 289 289 288 287 287 287 287 288 288 289 290 291 292 291 291 291 290 290 289 288 289 289 290 290 290 290 292 291 291 290 289 288 287 287 287 288 288 289 290 291 290 291 291 291 291 290 291 289 291 291 290 290 291 290 290 289 288 290 289 288
278 283 287 288 287 285 286 287 287 287 288 289 289 289 289 288 289 290 289 287 287 287 287 288 288 287 287 286 286 286 286 286 286 287 287 287 286 287 289 290 290 290 291 292 291 290 289 290 290 289 289 289 290 292 291 290 288 288 288 288 286 286 287 288 288 290 290 290 290 291 291 291 291 291 291 292 290 290 290 290 290 290 290 290 289 289 289
285 288 288 289 287 285 287 288 288 288 289 288 287 286 286 286 287 287 286 287 286 285 286 287 287 286 285 285 286 285 285 285 286 286 286 287 287 288 288 288 288 289 290 291 291 290 291 291 290 289 291 291 290 290 290 289 287 287 287 288 287 287 287 288 290 290 290 290 290 290 290 290 290 291 291 291 291 291 290 290 290 290 290 289 289 289 289
284 289 289 289 290 289 289 289 289 290 291 289 287 286 285 286 285 286 285 285 286 287 286 286 285 286 286 285 285 285 285 285 286 285 287 287 286 287 287 287 287 287 287 289 290 291 290 290 290 290 291 292 293 292 289 288 287 288 287 286 285 286 286 288 288 289 289 290 289 289 289 288 288 289 289 289 289 289 290 290 290 290 289 289 289 289 289
288 287 287 288 290 290 290 289 289 289 289 289 288 288 290 291 288 287 286 286 285 286 286 285 285 286 287 286 285 284 285 285 287 287 286 286 285 286 286 286 286 287 287 287 288 289 288 289 290 290 290 292 292 292 289 287 287 289 287 286 285 285 287 289 290 289 290 290 288 287 288 288 289 289 289 290 290 290 289 289 290 290 290 289 289 289 289
287 287 287 286 285 285 286 285 283 286 287 288 288 287 286 287 289 286 284 285 286 286 287 286 286 286 286 286 286 285 285 285 285 286 286 285 285 286 285 285 286 286 287 287 287 287 289 290 290 290 290 292 292 291 289 288 287 287 286 285 284 286 287 287 287 287 287 286 285 286 287 289 289 289 289 290 289 289 289 288 288 287 288 288 289 289 288
287 287 287 284 283 286 287 288 288 288 287 288 288 288 287 285 285 285 285 285 285 285 285 285 286 285 285 284 285 284 284 283 284 284 285 285 285 285 285 285 286 285 286 286 287 287 287 287 288 289 290 291 291 290 288 287 288 287 285 286 286 285 287 287 286 285 285 286 286 287 289 290 289 287 288 288 289 289 288 288 287 286 285 286 287 288 288
286 286 287 287 286 288 289 289 288 288 288 289 287 285 284 285 284 284 285 286 286 287 286 285 285 284 285 283 283 283 282 282 283 283 283 283 283 284 284 284 283 285 286 287 287 287 286 286 287 288 289 290 289 288 288 288 287 287 286 285 285 285 285 285 286 286 285 285 287 289 288 287 287 288 287 286 285 285 284 284 284 284 285 286 287 288 289
285 285 287 287 287 287 286 286 286 286 287 286 285 285 284 283 283 283 284 285 286 286 285 285 284 284 283 283 282 283 283 282 283 282 283 282 282 282 283 284 285 285 286 287 287 285 284 285 286 288 289 289 289 287 287 287 287 287 286 286 284 283 284 285 286 287 285 286 287 286 286 285 287 287 285 285 285 284 284 285 285 286 286 287 288 287 287
286 287 288 288 286 284 285 286 285 285 286 287 285 284 283 283 282 283 284 284 284 284 284 284 283 282 282 282 281 281 281 281 281 282 282 282 281 281 282 283 284 283 283 283 283 284 284 284 285 287 289 289 289 288 287 287 287 286 286 285 284 285 286 286 286 287 287 287 288 288 288 286 285 285 285 285 284 285 286 286 286 287 287 288 288 287 287
285 285 286 284 284 284 285 285 285 284 284 284 283 283 283 283 283 283 283 284 284 284 283 283 283 283 282 281 281 280 279 278 278 278 278 277 274 274 276 281 282 282 281 281 281 282 283 284 285 288 289 289 289 288 287 288 286 286 286 285 284 284 284 285 285 285 286 286 287 287 287 287 285 284 284 284 283 284 285 285 285 286 286 286 286 286 285
283 282 283 284 285 285 285 284 284 283 283 283 281 283 283 283 283 284 284 284 283 282 283 283 282 282 281 280 278 278 275 273 274 275 274 273 272 272 274 277 280 281 281 282 282 282 283 284 286 288 289 289 289 288 288 287 286 287 285 283 283 283 285 285 285 285 286 287 287 287 286 286 285 283 284 284 284 283 283 284 284 284 285 284 284 285 285
286 285 285 285 284 283 283 283 283 283 283 283 283 283 283 284 284 283 284 283 283 283 283 283 282 281 278 277 276 274 273 274 276 276 274 273 272 274 276 278 280 281 282 283 282 284 285 286 287 288 289 289 288 288 288 287 286 286 285 283 283 285 284 284 284 284 284 285 285 285 285 284 284 283 283 283 283 282 283 284 284 284 284 284 284 285 285
288 288 288 288 287 286 284 284 283 283 282 282 284 285 284 284 283 283 284 284 284 284 284 282 281 277 275 274 273 272 271 276 275 275 274 273 274 275 277 280 280 281 282 283 284 285 287 288 288 288 287 287 287 287 286 285 285 284 284 284 284 284 284 283 283 284 285 285 284 285 286 285 284 284 284 284 283 283 282 283 283 284 283 283 284 284 285
286 286 287 286 285 285 284 283 285 285 284 282 282 283 284 284 283 283 284 283 283 284 282 281 278 275 273 271 272 271 272 273 273 272 273 276 278 277 278 279 280 280 280 282 284 285 287 287 286 285 285 286 286 286 284 283 284 284 284 283 284 284 283 283 283 284 286 285 284 285 287 285 285 284 284 284 284 283 283 283 284 284 283 284 284 284 284
286 286 285 284 285 284 285 285 286 285 284 284 283 283 285 284 284 284 283 283 284 283 282 280 278 276 275 274 274 273 272 275 276 277 277 276 275 275 277 277 279 279 280 280 283 285 286 286 285 286 286 286 286 285 283 285 284 284 284 284 284 284 283 283 283 284 284 283 283 285 286 285 284 284 284 284 284 283 283 284 285 286 286 285 286 285 285
287 287 286 285 285 286 286 286 287 286 286 286 286 285 284 284 284 284 284 284 283 283 282 281 280 279 276 273 271 271 274 273 274 275 274 274 274 277 278 279 278 279 279 280 281 283 285 285 286 285 285 286 285 284 284 284 284 285 284 283 283 284 284 284 283 284 284 283 283 283 283 284 285 285 284 283 283 284 284 284 283 284 285 286 286 285 285
287 287 286 285 286 285 286 287 287 288 287 287 285 285 284 283 283 284 284 284 284 283 282 281 279 278 278 278 277 275 274 274 275 275 274 275 276 278 279 280 280 281 281 282 282 283 284 284 283 284 284 285 287 286 284 284 284 284 285 283 283 282 283 284 283 284 284 283 283 283 283 283 284 286 286 284 283 283 283 283 284 285 286 286 286 285 285
286 286 287 285 285 286 287 287 287 287 286 287 286 286 286 286 285 284 283 284 284 284 283 282 281 280 279 279 278 278 279 278 278 277 278 278 280 280 280 281 282 283 283 283 283 283 284 286 283 283 283 283 283 282 283 283 283 283 286 284 283 282 283 283 283 283 283 282 283 284 284 283 283 285 285 284 283 284 284 283 284 285 287 287 286 286 286
285 285 285 285 286 287 288 287 287 287 287 287 287 286 286 286 285 285 283 284 285 285 284 283 282 281 281 280 280 280 280 280 280 280 281 282 280 279 279 280 281 282 283 283 282 282 284 283 281 281 281 281 281 283 281 283 282 282 285 283 282 282 283 282 283 283 282 283 284 284 285 285 285 285 285 285 285 286 286 285 284 285 287 286 286 286 286
285 285 285 286 286 286 287 287 287 287 287 287 288 288 289 287 286 285 285 284 285 286 285 284 284 284 283 283 282 281 281 281 282 281 281 282 281 280 279 281 283 282 283 283 283 282 282 282 282 282 280 280 280 283 283 281 281 282 284 284 283 282 282 282 283 283 282 282 282 283 284 286 286 286 286 286 285 284 283 284 286 286 286 287 286 286 286
285 285 286 286 285 285 286 286 285 287 286 287 288 288 288 288 287 285 285 284 285 285 285 285 284 284 283 282 281 281 281 281 282 282 282 282 282 282 283 283 283 282 284 283 281 281 281 282 280 279 282 281 281 283 284 281 281 283 285 284 283 282 282 282 282 282 282 282 282 282 283 284 286 286 285 284 283 284 285 286 286 286 286 286 286 286 286
285 285 286 286 286 286 286 286 286 285 286 287 287 288 287 287 287 287 285 284 284 285 284 284 283 283 282 281 280 279 278 280 281 281 281 282 282 283 284 284 283 283 284 282 281 282 282 280 279 280 283 283 283 283 281 281 283 285 286 284 283 282 282 283 282 282 282 282 282 282 282 282 282 282 283 284 284 283 284 285 286 286 286 286 286 286 286
285 285 285 286 285 285 286 286 287 287 288 288 288 288 287 286 286 287 287 285 285 285 284 283 282 282 281 281 280 280 279 279 281 281 281 281 281 281 282 284 284 282 283 283 282 281 281 280 281 283 283 283 283 283 281 282 285 286 285 285 283 282 282 282 282 282 282 281 282 282 282 282 281 281 282 283 284 283 283 285 285 284 283 284 285 285 285
285 286 286 286 286 286 287 287 288 289 290 290 290 289 287 286 287 287 287 286 285 285 284 284 283 282 282 282 281 280 280 280 280 281 283 283 283 282 282 284 283 283 283 284 283 282 282 282 283 283 283 283 283 280 281 283 283 285 286 285 283 283 282 282 282 282 281 282 282 281 282 281 282 283 283 282 282 284 285 285 285 285 285 284 283 283 284
286 286 286 285 285 286 286 286 287 288 287 286 285 286 286 285 286 287 287 287 287 286 284 284 284 284 283 283 282 280 280 280 279 279 280 280 281 282 283 284 284 283 284 284 283 283 282 282 282 283 283 283 283 280 281 282 283 283 284 284 284 283 283 282 283 283 282 282 282 282 283 282 282 283 284 285 285 285 285 285 285 285 285 283 283 283 283
286 286 286 286 287 288 287 285 286 286 286 286 286 286 285 286 285 286 286 286 286 286 285 284 284 284 283 283 282 283 283 281 278 279 279 280 281 282 283 283 283 283 284 284 283 283 283 283 283 283 284 284 282 281 281 282 282 282 282 284 284 283 283 282 283 282 283 282 282 281 282 283 282 282 283 284 284 285 285 285 284 282 281 281 282 282 282
286 287 287 286 287 287 286 285 285 285 285 285 286 285 286 286 285 286 286 286 286 285 286 285 285 285 284 284 284 282 282 281 282 280 279 280 280 281 281 283 283 283 283 282 282 282 283 283 283 283 284 283 281 282 281 282 282 281 281 281 282 283 283 283 283 282 282 282 281 281 282 281 281 282 281 282 282 282 282 282 282 281 279 279 280 280 280
286 287 286 285 286 286 285 284 283 284 284 284 285 285 286 285 285 285 284 283 285 285 284 285 285 284 284 283 281 282 283 283 283 281 281 281 280 280 281 282 282 283 283 282 283 282 283 284 283 283 282 281 282 282 282 282 281 280 280 280 280 280 282 283 283 283 282 282 281 281 281 281 280 281 282 283 283 282 282 281 280 282 283 282 280 279 279
285 286 285 285 285 284 286 285 285 286 285 285 287 286 285 285 284 283 282 283 284 285 284 284 284 285 282 282 281 281 282 283 283 283 281 281 281 282 282 281 282 282 282 282 281 282 281 281 280 281 282 282 282 282 281 281 280 281 281 280 279 281 281 283 282 281 281 281 281 281 281 280 281 281 281 282 283 284 284 284 284 283 282 282 282 281 280
286 286 285 285 285 285 285 286 288 287 287 286 286 285 285 285 286 285 283 284 283 284 283 284 284 284 284 282 281 282 280 281 282 282 283 282 282 282 282 282 281 281 281 281 281 282 282 282 282 283 282 280 281 282 283 283 281 280 279 281 281 280 281 282 281 281 281 282 282 281 281 280 280 280 280 280 281 283 284 284 284 283 283 283 283 283 283
Wind_Speed
4 5 3 7 11 11 11 11 10 12 10 12 9 4 1 3 7 9 8 10 13 11 9 9 9 10 10 9 10 10 12 12 13 15 16 15 15 14 15 13 13 13 13 12 13 12 11 10 8 9 9 8 7 7 9 8 7 6 7 8 6 3 3 7 6 6 7 4 4 2 3 4 4 4 3 2 1 1 1 2 3 3 4 4 6 4 5
4 11 8 4 13 7 12 11 10 9 10 6 6 5 5 2 4 11 15 10 8 7 10 10 10 5 8 10 10 11 12 13 13 16 15 15 14 14 13 12 12 12 12 12 12 12 12 12 11 12 10 7 6 6 6 6 7 7 7 5 5 4 6 5 3 4 6 5 5 6 4 4 3 3 3 3 3 3 2 0 2 2 0 0 4 6 6
5 9 10 9 5 7 7 10 10 11 11 7 6 4 7 9 10 10 15 14 9 2 3 6 5 7 7 11 13 12 11 12 14 15 14 13 13 12 12 11 12 12 11 12 13 14 12 12 11 10 9 8 8 7 4 6 8 6 7 3 3 6 6 4 3 2 4 4 4 5 4 3 3 3 4 3 4 4 3 4 4 3 3 2 0 2 5
5 6 8 6 5 12 12 12 13 12 9 5 5 3 3 3 7 7 13 11 6 3 6 8 8 10 9 12 13 11 9 10 14 15 13 13 12 11 12 11 11 13 13 14 14 12 10 11 11 11 10 10 11 9 9 12 10 9 10 9 10 9 7 6 4 3 3 2 3 3 2 2 2 2 3 3 3 3 3 4 3 3 5 4 4 2 1
1 6 6 2 1 5 7 7 9 9 5 3 2 2 5 5 4 13 10 8 5 9 9 14 9 7 12 10 10 14 13 11 13 14 13 12 12 12 12 13 13 13 12 12 12 12 11 11 11 9 8 11 10 8 10 9 9 9 10 9 10 10 9 9 8 6 3 5 6 5 3 2 4 7 7 6 5 4 3 2 3 4 3 4 4 3 3
1 6 8 2 2 4 1 1 3 3 4 6 1 3 3 3 2 2 1 6 7 7 8 10 10 10 8 9 8 7 11 12 12 11 11 11 11 12 13 11 10 9 9 10 11 11 11 11 9 6 8 9 8 7 7 8 10 10 11 10 10 9 10 9 8 7 8 8 8 7 7 8 8 8 8 7 5 5 5 4 2 2 1 2 1 1 3
2 2 3 4 2 2 1 2 4 6 6 8 9 7 8 6 8 7 12 10 9 9 9 11 14 14 14 12 12 9 7 8 10 12 8 10 11 10 10 11 10 10 10 10 11 11 10 10 10 9 10 8 7 9 9 11 10 10 10 10 10 9 10 9 9 9 9 9 9 8 8 8 8 8 8 7 9 8 7 5 5 5 5 4 3 1 1
1 2 1 2 0 1 3 2 4 6 1 6 3 11 8 8 8 8 11 10 12 14 15 12 12 15 15 13 11 9 8 8 8 11 10 7 9 10 7 9 8 8 10 9 9 9 7 9 10 10 9 7 10 9 9 10 10 10 10 10 9 9 10 9 9 9 8 8 8 7 8 8 8 8 7 7 7 6 6 7 6 6 5 3 3 4 3
3 1 3 4 0 2 6 4 5 5 3 4 3 5 3 6 2 9 10 12 11 12 12 12 10 9 13 14 9 9 9 10 9 10 8 8 9 9 7 7 7 6 6 6 4 3 3 4 6 6 6 7 8 10 12 10 10 10 11 11 10 9 9 9 9 8 8 9 9 8 7 8 8 8 7 8 7 6 6 6 6 6 4 4 4 4 3
3 5 4 2 1 0 1 1 4 2 4 4 2 0 3 7 4 11 14 13 13 11 13 13 11 8 16 10 5 5 7 8 10 9 8 7 7 7 6 4 5 5 5 4 3 4 6 8 6 6 7 8 10 11 12 10 12 11 11 10 9 9 9 9 8 8 9 9 8 6 6 7 6 5 5 4 5 4 6 6 6 5 4 5 5 4 4
2 3 4 1 2 1 1 6 5 3 2 1 3 1 5 3 3 6 10 13 11 13 12 11 6 9 7 5 2 1 3 5 6 8 6 5 5 4 5 6 6 5 4 4 4 4 6 9 5 5 6 8 9 9 8 8 8 8 8 7 7 8 8 8 8 8 8 8 8 8 7 6 5 5 4 4 3 4 4 4 4 4 4 4 5 4 4
2 3 4 2 1 0 2 5 6 5 4 6 2 4 2 2 3 5 6 8 9 9 7 6 3 6 14 10 7 4 4 5 6 6 6 5 4 4 3 2 2 2 2 4 6 6 6 3 2 3 4 7 8 8 7 7 9 8 8 7 6 6 7 8 8 8 8 8 8 8 8 8 8 7 5 6 7 6 5 5 5 5 5 5 6 6 5
4 5 2 3 1 2 2 5 8 5 2 0 2 4 3 3 3 5 7 7 4 3 4 2 6 3 6 11 9 6 6 8 6 4 4 4 4 3 3 2 4 3 3 4 5 4 3 3 3 4 4 6 6 4 5 6 6 4 3 4 6 8 9 8 9 9 8 8 8 8 7 7 7 6 6 6 6 7 7 6 7 8 8 7 7 8 8
3 1 5 1 1 1 5 7 4 3 1 1 3 1 3 3 3 3 8 11 8 8 8 11 11 11 12 11 9 8 8 9 7 7 5 4 4 4 3 4 4 2 3 4 6 6 6 7 6 6 6 8 6 6 6 7 5 5 7 7 5 6 6 6 5 5 6 6 5 5 5 6 6 6 6 6 6 7 6 6 7 7 6 7 7 8 8
2 4 5 3 1 2 10 9 2 5 3 1 1 3 9 6 6 7 6 9 10 13 11 13 14 12 10 9 9 8 8 8 8 8 7 6 6 5 5 7 5 4 5 6 5 4 5 5 5 5 6 6 6 6 8 8 8 8 7 6 7 7 7 7 6 5 5 6 5 4 5 5 5 6 6 6 7 7 7 6 6 6 6 6 6 7 7
2 3 3 1 1 4 10 4 4 2 1 1 1 6 7 7 5 6 7 5 7 12 14 12 12 11 11 8 8 9 8 7 6 6 5 5 6 5 6 6 6 5 4 4 4 4 4 4 4 4 5 5 6 8 7 4 6 6 7 6 6 7 7 7 7 7 6 6 5 6 6 6 6 7 7 6 6 6 6 6 6 5 6 5 6 6 7
2 2 3 3 1 2 5 7 7 4 5 5 5 11 7 7 7 4 9 8 7 9 13 12 11 10 8 8 8 9 6 7 7 7 5 5 5 5 7 6 6 5 4 4 4 3 2 2 2 4 5 7 7 6 3 3 5 5 5 5 5 5 5 4 5 5 4 5 5 5 5 5 6 6 6 6 6 5 5 6 6 5 6 5 5 6 6
10 9 5 4 5 6 7 6 5 8 9 8 9 11 11 8 7 7 9 7 8 8 7 12 9 8 8 9 8 8 8 8 7 7 7 6 5 5 6 6 6 5 4 4 4 4 5 5 6 6 6 6 6 1 1 3 4 4 5 5 5 4 4 3 3 3 4 3 3 4 5 4 4 4 4 5 5 5 5 5 5 5 6 6 6 6 6
4 3 1 7 6 4 7 8 7 7 7 7 7 9 9 8 8 10 10 10 10 10 11 11 9 7 7 8 7 7 7 7 6 7 6 5 4 5 5 4 5 5 4 4 5 6 6 5 4 4 5 4 3 2 1 2 3 4 4 4 4 4 4 4 5 5 6 6 7 7 7 6 6 6 6 6 6 6 6 6 6 6 6 6 7 7 7
5 4 4 3 3 4 3 5 8 8 8 8 7 7 7 7 7 8 9 10 10 9 10 8 10 8 8 9 8 8 7 6 6 7 7 6 5 4 4 4 5 4 5 5 5 5 5 3 3 4 4 3 1 2 3 3 4 4 4 4 4 4 4 3 3 3 3 4 4 5 4 5 6 7 6 5 6 6 6 7 7 7 7 7 7 7 8
3 5 4 5 6 6 4 4 4 7 8 8 7 6 6 6 7 6 6 7 7 6 7 7 9 9 7 7 8 8 6 7 7 6 6 5 5 4 4 4 4 3 2 4 4 4 4 3 4 4 4 3 3 4 3 3 4 6 6 5 5 5 4 4 4 3 4 3 3 3 3 3 3 3 5 6 6 5 4 4 4 5 6 6 6 6 6
4 5 6 6 6 1 0 4 6 5 4 7 7 5 6 6 6 5 6 3 3 5 4 6 7 8 6 5 6 7 6 6 5 5 5 4 4 3 3 5 5 4 2 3 4 4 4 3 4 4 4 4 5 5 3 4 5 3 2 2 3 4 4 4 4 5 6 6 5 6 6 6 7 6 5 7 6 6 6 7 9 8 5 4 6 6 7
4 3 6 5 6 5 5 5 4 3 4 6 7 6 5 3 4 4 5 4 4 5 3 4 7 5 6 4 6 7 6 5 4 4 5 4 4 5 5 7 6 5 4 4 3 4 2 3 4 4 4 4 4 5 1 2 2 1 0 0 2 4 4 5 4 6 4 6 5 5 5 6 6 7 8 7 8 10 10 10 10 11 11 12 11 10 8
1 2 4 5 6 5 2 4 4 4 4 6 4 3 3 3 3 2 3 2 6 4 4 4 4 6 7 7 9 7 4 3 4 5 5 6 6 4 4 4 4 5 5 5 4 3 4 5 5 5 6 5 4 4 2 1 1 0 0 1 4 4 4 4 5 5 5 4 5 5 5 5 5 6 7 8 8 7 10 11 12 12 12 11 11 12 14
2 1 4 3 5 6 4 5 4 4 5 7 6 5 5 6 4 5 5 4 5 9 7 5 4 6 9 7 7 6 4 3 4 5 6 5 5 5 4 5 5 4 3 2 2 3 4 4 5 5 5 6 5 4 3 2 1 1 1 3 4 4 4 5 5 5 5 5 5 4 5 5 5 5 6 7 8 9 6 8 10 11 11 10 11 13 13
5 6 6 5 6 6 5 7 7 7 7 6 3 1 2 5 5 6 6 6 5 6 8 7 6 6 10 9 6 5 5 6 7 6 5 5 4 4 4 4 4 3 3 2 1 4 4 5 6 5 6 7 6 5 2 3 3 1 2 3 4 4 4 4 4 4 4 5 4 5 5 5 5 5 5 6 7 7 8 9 8 6 9 11 11 12 13
5 5 9 9 6 4 3 7 3 3 5 4 5 3 1 2 4 4 3 4 6 6 8 7 8 6 5 6 6 5 7 4 5 5 5 5 5 5 4 4 4 3 2 1 2 3 4 5 6 6 6 6 5 4 2 3 1 2 3 3 3 4 5 3 2 3 4 4 5 5 5 5 5 5 5 6 6 6 6 6 6 9 11 7 7 9 10
5 5 5 6 3 2 1 3 4 5 5 5 4 4 2 3 3 3 5 6 5 5 4 6 7 6 6 4 6 4 4 5 6 5 5 6 5 4 4 4 4 3 2 1 1 3 3 3 4 6 7 6 4 2 2 1 1 2 2 2 2 1 0 1 2 3 4 4 5 5 5 5 5 5 5 5 6 6 6 6 6 7 8 9 9 10 14
6 6 5 6 5 4 3 2 4 4 3 3 5 4 5 6 4 5 4 4 6 7 6 3 3 5 6 4 4 5 4 4 5 6 5 4 3 4 4 4 3 2 0 0 2 2 3 3 4 6 7 6 4 4 2 2 2 2 3 2 1 1 2 3 3 4 4 3 4 5 5 5 5 5 5 5 5 6 5 6 7 7 7 9 9 11 11
5 4 5 5 5 5 4 1 1 3 5 4 4 3 5 7 5 4 6 5 4 6 4 5 5 4 4 5 4 7 7 6 6 4 4 4 4 4 3 3 2 1 0 0 0 1 2 3 4 6 8 6 5 4 3 3 1 1 2 2 3 3 3 3 3 4 3 4 5 6 6 5 5 5 5 6 6 6 6 7 7 7 8 8 7 7 8
5 5 6 4 5 4 5 2 1 2 4 1 4 5 2 4 5 5 5 5 4 5 3 4 4 3 2 4 4 3 4 4 4 4 4 3 1 0 0 2 4 4 5 4 3 2 2 3 3 6 8 6 5 4 4 3 1 2 0 2 2 4 5 5 5 5 4 4 5 5 6 5 5 5 6 6 6 6 6 5 6 6 6 6 7 6 7
6 6 7 4 4 4 3 3 4 3 0 2 5 5 5 5 5 6 6 6 7 7 6 5 5 5 4 3 3 3 3 2 1 1 1 0 1 1 1 0 1 2 2 3 3 2 2 2 5 8 6 6 5 4 4 0 1 2 0 3 2 3 3 6 4 4 5 5 5 5 6 6 6 5 5 5 5 5 5 5 6 6 6 6 7 7 7
6 4 2 3 3 1 1 1 3 3 4 2 4 5 4 4 5 6 7 6 5 4 6 6 5 4 4 4 4 3 3 2 1 0 1 3 3 3 2 1 1 2 3 4 3 3 2 4 7 7 7 6 5 4 2 1 1 0 1 3 2 1 3 4 4 5 5 4 4 5 5 5 5 5 6 6 5 3 4 4 5 5 6 6 7 7 6
8 7 7 5 4 2 2 0 1 1 1 1 2 3 4 4 5 5 6 4 5 5 5 6 5 5 5 4 4 3 3 1 1 4 5 4 3 3 3 3 3 3 3 4 4 4 5 6 7 8 7 5 4 4 0 2 1 0 2 3 1 0 2 3 3 3 3 4 5 5 5 4 5 5 5 4 2 2 4 4 5 5 5 6 6 6 7
6 6 6 5 4 4 4 4 3 2 3 3 1 1 2 2 3 4 6 6 6 7 5 5 6 5 4 4 3 2 3 5 8 5 5 4 4 4 3 1 2 2 3 3 3 5 6 7 7 7 5 5 3 0 2 1 0 1 3 2 1 1 2 2 3 3 3 4 3 4 5 5 5 5 5 2 4 3 4 5 5 5 5 5 6 6 7
1 2 0 0 1 5 4 4 5 6 5 4 3 3 3 2 2 3 6 5 4 5 6 6 5 4 4 4 3 4 5 7 7 7 4 5 5 2 0 1 1 3 3 6 5 6 6 5 7 6 6 5 3 3 2 1 1 3 3 2 1 1 2 2 2 2 2 3 4 4 4 4 4 4 4 4 5 5 6 4 5 5 4 5 5 5 6
2 3 5 4 4 4 4 4 5 4 3 3 4 2 2 2 4 5 2 4 5 6 7 6 5 4 5 7 6 5 5 5 6 6 7 5 3 1 0 0 1 1 2 3 5 3 2 3 6 6 3 5 4 3 3 4 2 4 3 2 1 1 1 2 3 3 2 3 3 4 5 4 5 5 5 5 5 5 4 4 4 4 5 5 5 5 6
4 1 2 5 4 4 4 4 4 4 3 1 1 2 3 4 3 3 4 5 5 6 7 8 8 6 4 2 2 4 6 5 6 6 4 3 3 1 1 1 3 2 2 6 3 2 3 3 2 4 3 4 3 3 2 4 4 4 3 3 2 1 0 1 2 2 2 2 2 3 5 4 4 4 4 3 3 3 3 3 4 4 5 5 5 5 5
3 4 4 4 4 3 1 1 2 0 2 2 2 3 3 2 2 1 5 6 6 6 6 5 3 3 3 4 5 5 6 6 6 5 4 4 2 3 5 5 5 6 6 4 2 4 3 2 3 3 3 1 1 1 2 4 1 3 3 3 2 1 0 1 2 1 1 1 3 4 4 4 4 4 4 3 3 3 3 4 5 5 5 5 5 6 6
0 1 1 3 3 3 3 2 2 3 3 0 2 4 4 4 2 3 4 4 5 6 7 6 6 5 4 5 4 6 7 6 5 5 5 3 2 3 4 5 7 7 8 9 7 5 5 4 3 3 3 2 2 2 1 1 1 3 4 3 2 1 0 1 2 3 3 3 3 3 4 4 4 4 4 3 3 4 5 5 5 5 5 5 5 5 6
3 3 3 3 3 2 2 2 3 2 1 1 0 1 1 3 2 1 2 5 6 6 6 7 7 6 6 7 7 8 6 4 4 5 4 4 3 3 3 6 5 3 5 6 4 4 4 4 3 3 2 1 1 1 1 2 0 3 4 3 3 2 1 2 2 3 2 2 3 3 4 4 4 5 4 4 4 4 4 4 4 4 4 5 5 5 6
4 2 2 3 3 3 3 4 3 3 4 4 3 3 1 0 2 3 3 3 6 7 7 7 9 10 9 8 5 3 3 4 4 4 5 6 6 5 3 6 5 4 3 4 3 4 4 4 2 3 1 1 2 2 2 1 2 4 4 4 3 2 2 2 3 3 2 3 3 3 4 3 3 4 4 4 4 4 4 4 4 4 4 5 5 5 5
5 4 4 4 4 4 4 4 5 6 5 5 4 4 4 3 2 3 2 4 7 7 7 8 9 8 5 4 4 4 5 4 4 5 4 6 6 5 6 4 2 2 3 1 2 3 3 4 3 2 3 2 3 3 1 1 3 4 5 5 3 2 2 3 2 2 3 3 3 3 3 3 3 3 4 4 4 4 4 4 4 4 5 5 5 5 5
6 4 4 4 5 5 4 4 4 4 4 7 5 4 4 3 4 4 4 5 6 8 8 8 7 7 6 5 5 5 5 4 6 6 6 6 5 5 7 7 5 4 4 3 4 4 4 4 3 2 4 5 3 4 2 2 4 6 6 6 5 3 3 4 3 4 3 2 3 3 3 3 3 3 4 4 4 4 4 4 3 4 4 5 5 4 4
5 5 5 5 5 4 4 5 6 8 6 3 4 5 4 4 4 4 5 5 6 6 5 6 6 6 6 5 6 6 6 7 7 6 6 6 5 7 4 8 7 5 5 6 5 5 4 3 3 4 4 2 4 5 2 2 7 7 7 6 6 5 4 4 4 4 3 2 2 2 3 3 2 3 3 4 4 4 4 4 4 4 3 4 4 5 4
4 4 4 5 4 4 5 6 6 4 4 5 5 6 5 4 5 5 5 6 5 5 6 6 7 7 7 7 6 5 4 4 4 5 8 8 8 7 5 7 6 6 7 8 5 6 4 5 5 5 2 2 4 2 1 3 6 7 7 7 6 5 5 5 4 3 3 3 3 3 3 3 4 4 3 3 3 4 4 4 4 4 4 4 3 4 4
3 3 1 2 2 3 3 3 4 4 4 2 3 6 5 4 5 6 7 6 6 5 4 4 6 7 7 7 7 6 5 5 4 2 2 3 2 2 5 6 5 6 6 6 6 5 4 4 4 3 1 2 2 1 2 4 5 6 7 7 6 6 5 5 5 5 4 4 2 2 3 3 3 3 3 3 3 3 3 4 4 3 3 3 3 3 4
3 2 2 2 2 2 1 3 4 4 5 6 3 3 4 5 4 5 5 4 4 2 2 3 5 5 5 5 5 6 7 7 5 5 2 2 1 3 4 4 5 6 6 5 5 3 5 5 3 2 1 1 0 3 3 4 6 6 6 7 6 6 6 5 6 5 4 3 3 3 3 3 3 3 3 4 4 4 4 4 4 3 3 3 4 3 4
3 3 4 3 1 1 1 3 3 3 3 2 1 3 4 4 3 1 2 2 2 2 1 1 3 5 5 6 7 7 5 5 6 4 4 6 6 6 5 5 6 6 4 4 4 3 4 4 4 3 2 2 2 4 4 5 4 4 5 7 7 7 6 6 6 5 5 5 4 4 4 3 3 4 5 3 3 2 3 3 4 4 4 3 3 3 3
3 1 2 2 1 1 2 2 2 4 2 0 4 5 4 3 2 3 1 2 4 3 1 1 1 2 4 4 4 3 3 5 1 3 6 7 5 4 5 5 4 5 4 3 3 1 2 2 3 2 2 1 4 4 5 5 5 4 4 5 6 6 6 6 5 5 4 4 4 3 3 3 3 3 4 5 4 4 4 4 3 4 5 4 4 3 3
3 2 2 2 2 2 2 3 4 4 4 4 4 5 1 0 2 3 3 3 3 3 3 2 0 1 1 3 2 1 2 1 2 5 6 6 5 5 5 5 5 5 4 3 2 2 2 1 2 2 1 4 4 5 4 5 5 4 4 4 4 6 6 6 6 6 6 5 5 5 4 4 4 4 4 5 5 5 4 4 4 3 4 3 3 3 3
1 1 1 2 3 4 3 3 1 1 2 3 2 1 1 2 1 3 5 4 3 4 3 2 4 2 1 2 3 3 4 4 3 3 5 5 5 6 5 5 5 4 5 4 4 4 3 3 3 3 3 4 4 4 4 5 4 4 3 3 4 4 6 6 6 6 5 6 6 6 5 6 4 4 3 3 3 4 4 4 4 4 4 4 3 3 3
Wind_Direction
14 25 108 93 81 81 83 65 33 20 350 16 26 328 329 117 141 186 166 152 142 154 152 146 140 135 128 122 122 111 108 100 94 85 78 73 70 65 60 55 53 54 57 55 55 55 46 44 41 51 52 53 61 75 87 79 92 96 102 103 115 142 110 98 98 100 100 93 333 324 150 155 157 177 187 197 108 82 113 156 187 193 190 165 141 155 162
19 19 11 50 100 80 61 48 36 16 10 353 29 12 355 235 166 138 137 137 127 141 153 148 147 146 130 121 110 102 93 91 88 85 80 75 71 68 66 64 60 57 55 56 56 55 50 48 46 51 49 44 44 42 33 75 87 92 88 95 134 117 98 95 93 116 115 111 93 9 335 124 150 136 129 118 114 103 92 139 154 148 105 263 164 161 161
12 358 8 6 87 102 80 40 33 17 356 359 23 16 12 46 65 113 120 123 118 24 95 114 99 93 103 105 103 100 101 97 90 84 81 76 72 70 70 64 61 59 55 54 53 50 47 48 47 49 55 52 50 49 65 87 84 77 85 100 95 78 83 70 64 49 71 79 70 81 337 327 98 109 111 105 96 99 86 84 84 91 112 104 100 200 178
343 355 5 334 71 77 65 30 16 6 0 15 344 12 300 97 131 113 115 119 133 147 119 90 68 92 98 107 105 98 93 94 96 92 88 84 77 68 65 57 50 48 47 46 44 40 30 42 43 45 49 54 55 52 65 75 79 83 78 70 66 65 62 67 62 56 59 73 102 115 106 317 332 94 99 81 83 97 88 80 87 79 75 77 65 68 114
342 338 351 320 299 52 29 10 349 329 295 253 269 359 47 52 116 131 149 174 139 139 125 113 108 108 105 90 92 100 93 88 91 93 94 92 85 73 62 52 47 44 41 39 38 32 29 27 34 31 42 57 52 50 58 67 75 72 71 68 65 65 66 63 58 56 80 94 80 77 90 68 40 34 26 27 16 32 71 119 53 55 89 96 81 41 52
265 340 329 341 39 70 54 41 2 342 307 298 59 26 26 34 71 197 175 128 130 114 105 116 113 89 81 93 81 80 106 105 92 85 82 82 84 81 75 64 56 51 46 48 44 36 26 19 18 15 33 50 54 47 53 56 59 61 63 60 57 56 55 52 47 42 39 43 45 38 38 44 47 48 46 37 32 31 6 3 49 104 68 61 67 95 111
165 349 7 53 81 115 162 290 357 2 341 31 89 77 56 28 39 65 93 99 99 90 90 99 101 103 100 95 93 78 58 83 96 100 81 78 79 78 82 83 70 59 51 43 46 40 27 20 6 13 29 30 45 47 43 53 51 55 55 57 53 48 49 45 44 41 42 42 43 38 34 36 40 39 36 28 29 18 25 26 11 358 352 341 319 259 201
59 69 24 108 322 320 315 288 8 3 1 0 44 64 40 37 47 68 73 77 99 105 104 102 108 109 107 89 68 72 73 84 100 90 88 83 87 83 81 86 77 73 69 62 56 41 23 30 22 10 13 19 46 47 45 50 47 49 50 50 47 43 43 43 43 41 43 43 39 37 35 33 36 35 32 28 19 4 14 14 9 11 3 0 305 293 261
132 116 61 77 52 299 1 14 5 16 3 345 3 95 46 30 38 96 101 101 101 106 103 108 101 99 93 77 54 44 71 76 68 85 90 94 94 98 86 83 80 75 82 81 75 97 77 67 56 31 8 25 43 49 45 37 42 44 44 40 37 39 40 36 36 36 39 43 37 30 33 34 30 27 25 15 9 6 15 7 7 3 342 316 300 291 266
113 120 91 65 28 244 250 238 286 200 206 207 244 354 47 19 53 132 122 120 119 113 118 122 132 115 79 72 61 31 62 73 86 84 94 97 106 106 105 89 93 88 82 75 53 52 57 53 39 28 24 40 46 51 50 36 40 34 37 29 24 32 34 33 31 30 30 34 38 32 35 38 32 21 16 19 17 7 15 358 358 349 322 319 314 301 296
68 65 109 115 145 260 259 280 290 256 237 217 291 132 55 10 57 150 130 134 136 138 140 150 175 107 84 111 128 229 91 78 74 78 60 67 81 104 117 121 113 113 108 103 79 58 51 52 30 42 38 46 56 53 56 57 50 43 39 30 28 29 24 23 22 23 29 30 28 20 21 20 25 24 26 18 4 16 14 8 354 337 345 337 327 319 298
36 112 80 95 53 204 286 291 299 291 310 328 313 96 256 30 22 96 116 135 150 161 161 153 57 114 140 157 170 181 125 110 103 100 97 77 61 52 48 52 98 85 78 81 69 57 51 34 341 36 41 50 55 57 55 59 59 42 32 20 15 24 22 20 21 21 20 18 14 13 9 7 10 12 5 12 11 9 5 6 356 352 352 354 344 330 323
53 78 84 52 350 306 296 294 296 304 223 6 101 195 188 155 127 105 108 97 102 130 117 141 107 4 106 131 140 137 129 103 88 85 97 113 110 94 64 37 26 44 40 52 65 63 61 58 50 63 70 68 62 64 60 54 50 46 63 66 42 38 29 22 24 23 18 17 11 7 8 5 1 3 5 3 358 3 358 355 358 354 353 350 348 342 340
48 84 88 157 232 239 324 299 282 291 77 86 213 289 315 142 97 58 97 98 92 91 96 103 104 113 117 122 129 134 131 126 131 124 116 91 68 51 53 38 32 43 32 48 50 44 40 39 31 37 42 41 37 34 38 37 21 16 28 38 54 64 65 54 35 30 24 16 14 8 6 10 8 360 348 350 351 352 352 354 354 350 348 355 356 349 346
36 41 63 41 341 311 342 309 335 20 106 186 49 82 34 53 84 83 67 102 116 107 96 102 112 116 119 126 130 131 130 124 125 125 120 105 90 78 60 48 36 67 71 67 60 52 32 32 26 39 48 41 30 20 26 21 35 47 50 46 45 43 40 36 30 28 22 16 12 8 4 4 9 3 352 356 351 354 356 353 354 353 354 359 357 347 340
110 55 71 115 319 321 339 41 112 340 307 316 15 85 66 36 49 73 81 66 110 113 115 113 110 115 117 109 110 100 90 86 81 79 88 93 89 78 69 65 48 54 71 76 80 59 51 37 33 42 57 37 32 38 27 22 50 47 46 44 42 39 31 26 19 14 10 8 7 3 2 4 8 11 1 359 1 2 360 1 357 356 345 349 349 346 339
111 136 117 85 102 22 18 53 78 80 55 61 71 82 74 68 38 33 84 67 65 98 109 108 112 106 100 108 102 101 105 96 90 84 85 93 88 72 65 48 39 43 78 107 79 56 28 34 18 30 43 64 62 59 1 33 57 56 52 47 47 37 30 26 19 8 2 5 6 6 7 13 12 4 359 1 3 356 2 359 355 347 334 336 336 323 321
79 62 96 132 68 67 62 52 74 78 69 59 63 71 77 55 69 61 78 70 71 65 77 97 82 90 103 95 92 92 91 89 88 91 87 78 68 61 51 41 38 41 50 68 77 60 21 14 31 59 74 84 78 74 342 53 60 63 52 42 36 21 14 16 11 17 14 7 10 10 10 9 6 357 360 360 360 349 357 351 351 347 338 343 336 332 324
79 94 60 95 105 87 86 81 65 62 65 68 75 77 69 72 64 70 66 73 69 71 68 71 80 75 82 89 83 84 84 82 86 89 90 73 78 81 66 43 50 35 42 43 44 52 48 22 49 62 73 84 124 152 114 106 100 90 73 62 45 23 13 1 356 7 14 359 355 357 359 356 354 355 354 357 352 348 350 344 342 341 339 341 336 331 328
93 152 149 105 86 92 86 93 91 75 67 63 57 78 99 99 88 83 82 76 68 67 66 71 79 75 77 84 86 91 95 96 87 84 88 89 67 45 65 51 51 43 48 68 62 61 45 19 48 55 61 52 43 40 43 72 76 68 57 53 39 20 13 8 356 355 10 4 360 352 347 347 341 338 334 332 334 324 326 325 327 326 327 326 323 319 318
59 76 76 93 71 46 35 64 84 114 116 104 92 84 87 93 87 88 92 103 120 116 123 112 103 93 86 98 103 95 86 88 88 91 92 91 93 66 44 32 37 42 101 83 76 67 34 9 48 45 29 6 357 21 38 64 57 44 28 17 13 1 356 357 349 352 353 358 351 339 323 318 303 286 293 307 304 295 275 247 252 277 296 294 293 293 294
148 176 171 140 105 150 309 110 131 129 119 110 109 100 91 100 108 107 104 78 76 95 104 111 110 117 123 122 116 112 110 114 119 111 102 102 103 91 55 41 37 38 66 91 86 69 37 27 37 29 1 353 4 15 41 61 63 66 41 25 6 334 323 331 321 340 341 338 331 327 324 322 323 314 297 290 287 284 288 285 281 272 247 261 279 289 291
199 197 168 147 134 141 189 169 162 129 133 113 116 124 129 122 118 130 112 91 91 90 108 137 131 135 123 115 87 79 86 114 129 125 110 101 75 59 66 66 42 39 37 47 53 41 28 47 20 357 356 348 358 356 8 124 121 130 141 16 310 300 306 301 300 301 301 300 300 313 318 314 311 308 309 307 290 284 280 281 286 294 301 299 297 288 280
100 147 144 135 131 149 159 138 142 135 133 105 90 74 91 111 111 96 100 145 119 90 91 35 65 96 81 94 102 104 95 97 94 69 66 82 95 89 67 85 79 59 36 15 17 5 359 18 356 352 345 329 332 322 300 239 118 130 170 266 285 287 291 290 293 289 292 304 315 319 312 313 311 313 313 310 306 277 271 279 284 287 290 290 289 290 292
163 156 121 98 97 95 96 105 97 108 112 112 113 119 115 100 92 106 99 88 121 128 124 115 109 108 110 115 112 121 120 111 91 99 102 98 97 98 100 75 60 52 22 351 359 355 12 2 342 332 328 310 312 307 275 233 150 179 231 240 268 284 290 289 289 296 305 307 306 309 308 310 308 303 303 301 301 309 292 269 266 273 273 269 274 283 286
99 83 66 59 76 97 110 76 60 82 92 98 102 124 120 108 124 113 120 121 117 123 122 127 119 124 120 120 126 136 118 115 127 123 114 114 114 106 102 119 127 110 70 336 10 32 14 353 339 326 318 301 300 290 232 212 202 228 264 263 256 264 277 286 300 306 301 297 299 295 288 288 292 292 288 290 297 301 308 315 311 265 231 239 259 280 286
67 91 86 62 57 27 59 120 167 163 129 123 114 128 118 60 79 106 115 124 137 138 141 142 133 131 118 135 137 144 135 153 123 126 139 144 143 162 173 169 136 118 108 324 14 50 9 349 339 325 303 303 313 297 217 206 210 279 276 264 261 272 284 289 261 265 283 291 287 284 288 285 288 297 303 308 305 302 301 305 303 306 315 293 262 261 281
82 73 92 114 111 117 124 126 138 149 134 124 117 98 60 60 57 64 102 104 75 72 83 123 127 127 136 159 135 159 152 145 139 158 156 173 186 180 171 160 154 142 152 161 70 37 17 349 333 321 302 290 300 351 235 178 211 240 246 252 271 280 259 211 265 276 283 283 287 286 284 286 291 292 294 300 303 298 295 284 284 290 291 289 297 304 295
110 113 114 127 152 164 151 124 109 116 132 151 129 125 97 77 60 52 38 102 122 115 113 112 126 144 147 166 141 145 141 136 138 163 174 191 186 188 187 170 149 134 123 48 37 45 27 346 328 314 299 300 317 329 303 247 217 233 252 253 223 195 224 249 266 282 277 280 286 286 285 283 282 285 280 282 280 282 283 286 289 284 278 293 307 310 307
140 139 123 127 134 123 101 57 224 207 186 185 131 114 126 116 94 89 104 128 128 120 147 143 121 130 142 133 161 157 158 164 162 163 160 160 162 176 175 157 114 82 55 53 356 358 339 312 313 302 290 293 306 311 296 259 267 269 264 223 184 198 219 247 277 276 282 297 293 294 289 279 273 273 284 281 279 283 289 291 285 285 291 297 298 295 300
131 115 101 90 60 58 92 78 352 199 199 134 134 134 130 108 123 107 124 138 117 124 147 129 130 128 129 147 164 160 146 149 160 165 174 178 167 105 122 143 177 226 222 219 216 240 273 289 290 279 278 288 294 300 279 261 317 4 3 192 219 225 240 265 265 268 287 293 293 291 285 283 275 282 279 282 290 294 291 288 289 290 291 298 298 294 292
93 84 87 65 68 61 19 25 55 57 112 174 141 151 162 146 144 143 155 149 164 159 159 147 155 170 177 163 156 158 118 92 66 75 102 333 296 293 304 22 202 233 231 243 248 251 256 282 285 273 278 284 285 290 251 233 36 33 251 207 221 234 257 274 290 301 305 292 290 284 275 282 288 282 282 281 277 281 293 298 301 305 308 304 301 298 299
99 77 78 99 88 78 14 346 94 91 116 148 220 212 198 173 147 152 164 165 150 157 156 176 178 169 163 167 168 124 93 78 56 12 300 274 272 278 284 269 255 265 269 266 262 263 256 258 262 274 278 282 284 282 228 115 115 256 233 197 222 236 278 286 302 311 313 318 311 299 295 292 281 284 277 276 282 292 298 302 310 315 309 304 296 297 297
158 175 182 187 160 170 186 195 208 168 346 358 129 158 185 177 161 158 168 164 151 162 172 176 171 167 166 159 132 115 104 88 300 263 253 251 265 279 281 264 248 248 260 264 265 255 248 250 255 262 268 272 279 262 157 85 118 173 196 179 173 122 310 301 313 321 322 326 316 313 321 316 306 291 283 287 313 345 349 343 336 334 329 329 320 316 325
158 178 174 181 171 158 158 149 136 124 124 90 74 106 228 222 179 172 172 154 170 187 180 153 156 156 136 123 142 145 157 201 222 215 227 233 244 243 251 280 332 327 310 288 254 253 241 244 250 252 256 260 257 198 61 51 72 168 171 176 152 217 258 294 309 327 325 307 311 337 345 339 325 317 316 339 23 14 8 8 5 358 356 352 345 347 4
102 123 219 2 115 144 172 156 147 145 146 154 177 184 204 187 185 171 174 187 160 134 143 144 136 124 129 147 175 202 212 227 223 214 227 234 235 228 203 43 358 347 329 317 284 248 242 233 229 238 236 210 155 78 49 24 258 169 180 161 179 262 305 302 310 320 333 353 354 346 332 327 332 348 358 21 38 30 30 20 11 9 6 4 355 6 11
8 112 109 133 158 153 135 137 150 147 152 167 187 201 255 206 183 209 167 131 146 153 148 142 136 150 191 206 203 206 212 212 210 201 219 222 176 134 114 342 297 279 298 295 278 270 192 196 227 211 174 141 122 99 42 347 223 179 165 160 199 319 354 5 10 28 357 359 349 345 342 354 9 8 20 49 51 47 36 25 14 23 21 12 11 20 31
47 23 139 146 137 128 141 167 163 148 135 139 222 211 213 226 226 180 168 164 158 166 165 165 173 183 189 167 178 201 228 229 225 223 219 219 198 178 251 238 269 218 227 237 253 262 212 228 113 78 104 130 147 133 102 317 256 189 165 178 206 233 172 74 49 17 9 358 353 12 2 358 2 15 24 42 63 64 55 45 34 35 28 23 19 28 33
10 28 37 24 37 44 42 353 345 358 149 165 234 262 260 207 235 152 152 188 184 164 158 159 138 136 146 167 219 238 242 231 226 222 225 234 218 197 233 226 224 212 220 235 267 280 263 249 125 98 87 100 111 127 157 247 257 178 180 167 190 197 161 109 91 54 21 27 35 13 1 1 5 16 20 14 32 44 47 53 47 46 42 30 31 33 33
20 85 68 86 95 100 85 53 46 10 345 323 179 215 228 242 236 202 175 183 184 176 162 153 154 168 190 211 218 226 232 219 211 209 219 198 177 245 292 285 250 241 243 252 255 259 240 194 134 133 144 175 186 168 176 309 356 185 175 167 159 114 84 107 69 55 32 39 27 10 18 12 17 28 35 40 40 42 41 34 45 48 50 44 37 34 42
250 243 213 153 178 203 180 198 235 258 276 14 117 236 267 244 234 237 210 188 189 172 169 166 167 192 201 207 206 220 222 206 194 208 185 139 184 227 244 271 267 233 224 226 227 212 193 179 164 157 194 230 258 167 130 273 258 193 169 140 141 130 122 70 67 65 55 40 32 27 16 16 36 42 36 40 50 54 49 46 48 51 60 61 50 45 50
254 256 261 267 234 214 237 240 223 248 255 229 233 243 254 190 203 218 223 169 165 174 175 187 191 194 205 208 210 216 222 215 208 197 176 186 198 190 202 258 254 243 209 195 194 182 195 186 162 169 187 241 248 249 170 215 215 190 148 138 142 143 141 103 83 71 58 61 48 30 17 23 55 58 45 52 55 51 55 56 50 46 48 57 59 54 56
247 234 233 236 247 236 224 226 222 230 243 264 267 257 260 279 292 261 204 160 159 172 186 200 210 221 217 204 199 211 227 221 212 211 215 238 221 198 194 233 261 214 160 178 148 149 173 178 175 208 233 249 259 287 43 211 187 157 140 139 138 143 133 114 101 90 75 72 53 35 27 30 49 52 50 47 46 50 67 63 56 52 57 64 62 61 57
253 229 218 226 240 236 229 239 251 250 252 268 268 258 261 261 268 258 211 178 181 184 190 202 205 209 211 196 186 202 223 211 221 215 213 259 287 251 230 245 253 231 192 157 153 170 183 196 198 216 238 250 276 1 357 247 167 145 141 142 148 161 146 121 112 99 92 77 75 61 54 54 55 60 75 74 66 56 62 69 64 76 82 82 82 76 73
271 237 233 224 222 213 224 224 223 229 227 241 284 287 270 263 259 250 232 188 186 203 202 200 200 201 202 194 195 207 212 198 192 170 180 232 249 274 242 204 209 199 194 175 168 176 188 206 225 219 230 266 23 7 334 129 140 146 146 146 152 163 154 144 142 139 136 120 94 87 79 70 65 66 68 73 76 68 60 62 58 53 65 78 88 91 83
276 269 267 266 249 224 217 211 218 203 194 200 229 256 260 258 266 260 232 216 211 210 193 192 192 199 194 200 214 219 230 247 233 199 199 190 193 227 192 171 181 175 184 173 163 174 201 211 217 210 231 24 35 7 54 98 127 147 151 150 158 165 162 157 152 152 146 138 136 117 100 92 86 80 80 84 85 94 85 84 74 62 60 65 56 58 65
279 290 258 211 230 248 233 202 186 181 198 232 260 266 275 274 255 242 229 216 207 210 199 191 202 205 194 184 182 197 229 252 283 271 220 276 262 180 157 160 147 164 175 174 173 183 190 207 220 220 266 37 46 97 114 111 116 135 153 156 158 162 164 162 166 165 157 155 153 153 136 120 111 113 101 92 88 92 97 97 95 88 76 78 74 69 70
279 248 247 232 207 229 179 144 155 180 206 214 236 276 278 287 273 238 232 213 212 231 219 224 222 224 219 206 194 190 179 179 210 267 216 172 196 148 149 165 172 177 177 167 171 193 189 201 217 253 214 342 170 139 141 124 118 126 139 155 162 161 161 162 166 171 168 157 150 145 142 131 126 114 117 121 121 114 111 105 98 85 77 85 88 85 82
240 246 263 264 245 177 148 171 179 195 229 249 259 250 257 271 314 271 163 144 129 132 150 208 222 242 239 220 199 203 202 182 161 206 219 164 166 171 176 172 169 165 163 169 172 196 218 223 239 253 308 286 170 152 142 127 128 130 140 153 167 166 167 168 176 173 163 163 168 166 163 158 151 136 123 113 100 97 102 112 116 122 122 115 102 96 95
255 246 291 297 266 241 179 145 173 205 203 268 283 271 263 233 270 287 262 205 208 178 125 93 176 210 210 241 267 257 188 186 172 114 147 166 173 171 167 172 176 180 184 201 209 233 283 252 267 268 292 181 162 152 138 133 141 151 154 147 146 161 167 164 167 165 160 161 166 170 164 164 161 151 140 132 128 123 115 110 109 110 111 109 113 110 104
264 244 238 222 222 247 224 193 196 189 190 212 234 273 318 136 221 258 257 249 252 240 245 258 45 286 255 180 159 89 18 350 151 143 150 168 173 172 169 171 174 182 193 225 250 256 259 262 257 269 225 172 165 156 151 152 152 157 157 150 145 141 149 156 157 160 163 166 170 166 160 162 160 154 152 147 143 139 137 128 122 118 119 115 116 117 119
59 152 117 53 48 40 36 35 44 165 180 187 191 167 127 92 10 290 276 247 201 217 210 243 296 278 270 161 137 155 135 131 160 171 165 162 176 183 183 172 171 187 187 202 230 255 251 233 238 238 203 175 174 161 169 164 162 167 172 161 152 151 152 157 158 155 161 164 159 157 161 165 160 151 153 147 137 131 131 134 136 135 136 133 134 135 137